| time (UTC) | temp F | wind direction | speed MPH | gust MPH | rain 1hr in | rain 24hr in | rain mn in | humidity % | barometer mb |
| 20260906100952 | 74 | 177 | 0.0 | 0.0 | 0.00 | 0.00 | 0.00 | 93 | 1014.8 |
| 20260906100448 | 74 | 177 | 0.0 | 0.0 | 0.00 | 0.00 | 0.00 | 93 | 1014.9 |
| 20260906095942 | 74 | 177 | 0.0 | 0.0 | 0.00 | 0.00 | 0.00 | 93 | 1014.7 |
| 20260906095437 | 75 | 177 | 0.0 | 0.0 | 0.00 | 0.00 | 0.00 | 93 | 1014.9 |
| 20260906094932 | 75 | 177 | 1.0 | 1.0 | 0.00 | 0.00 | 0.00 | 92 | 1014.7 |
| 20260906094426 | 75 | 177 | 0.0 | 0.0 | 0.00 | 0.00 | 0.00 | 92 | 1014.6 |
| 20260906093922 | 75 | 177 | 1.0 | 1.0 | 0.00 | 0.00 | 0.00 | 92 | 1014.4 |
| 20260906093418 | 75 | 177 | 0.0 | 0.0 | 0.00 | 0.00 | 0.00 | 92 | 1014.5 |
| 20260906092913 | 75 | 177 | 0.0 | 0.0 | 0.00 | 0.00 | 0.00 | 92 | 1014.5 |
| 20260906092412 | 75 | 177 | 0.0 | 0.0 | 0.00 | 0.00 | 0.00 | 91 | 1014.2 |
| 20260906091908 | 75 | 177 | 0.0 | 0.0 | 0.00 | 0.00 | 0.00 | 91 | 1014.4 |
| 20260906091404 | 75 | 177 | 1.0 | 1.0 | 0.00 | 0.00 | 0.00 | 91 | 1014.4 |
| 20260906090900 | 75 | 177 | 1.0 | 1.0 | 0.00 | 0.00 | 0.00 | 91 | 1014.4 |
| 20260906090400 | 76 | 177 | 1.0 | 1.0 | 0.00 | 0.00 | 0.00 | 90 | 1014.2 |
| 20260906085854 | 76 | 177 | 1.0 | 1.0 | 0.00 | 0.00 | 0.00 | 90 | 1014.2 |
| 20260906085353 | 76 | 177 | 1.0 | 1.0 | 0.00 | 0.00 | 0.00 | 90 | 1014.4 |
| 20260906084843 | 76 | 178 | 1.0 | 1.0 | 0.00 | 0.00 | 0.00 | 89 | 1014.3 |
| 20260906084343 | 76 | 178 | 0.0 | 0.0 | 0.00 | 0.00 | 0.00 | 89 | 1014.0 |
| 20260906083837 | 76 | 178 | 1.0 | 1.0 | 0.00 | 0.00 | 0.00 | 89 | 1014.1 |
| 20260906083332 | 76 | 178 | 0.0 | 0.0 | 0.00 | 0.00 | 0.00 | 89 | 1014.1 |
| 20260906082826 | 77 | 178 | 1.0 | 1.0 | 0.00 | 0.00 | 0.00 | 88 | 1014.2 |
| 20260906082322 | 77 | 179 | 1.0 | 1.0 | 0.00 | 0.00 | 0.00 | 88 | 1014.2 |
| 20260906081818 | 77 | 179 | 0.0 | 1.0 | 0.00 | 0.00 | 0.00 | 88 | 1014.0 |
| 20260906081313 | 77 | 180 | 1.0 | 1.0 | 0.00 | 0.00 | 0.00 | 88 | 1013.8 |
| 20260906080809 | 77 | 188 | 2.0 | 2.0 | 0.00 | 0.00 | 0.00 | 88 | 1014.1 |
| 20260906080305 | 77 | 154 | 2.0 | 2.0 | 0.00 | 0.00 | 0.00 | 88 | 1014.2 |
| 20260906075805 | 77 | 166 | 3.0 | 5.0 | 0.00 | 0.00 | 0.00 | 88 | 1014.1 |
| 20260906075306 | 77 | 151 | 3.0 | 3.0 | 0.00 | 0.00 | 0.00 | 88 | 1014.1 |
| 20260906074800 | 77 | 171 | 3.0 | 3.0 | 0.00 | 0.00 | 0.00 | 87 | 1014.2 |
| 20260906074259 | 77 | 178 | 2.0 | 3.0 | 0.00 | 0.00 | 0.00 | 87 | 1014.2 |
| 20260906073759 | 77 | 192 | 2.0 | 2.0 | 0.00 | 0.00 | 0.00 | 87 | 1014.2 |
| 20260906073253 | 77 | 192 | 2.0 | 2.0 | 0.00 | 0.00 | 0.00 | 87 | 1014.2 |
| 20260906072750 | 77 | 192 | 1.0 | 1.0 | 0.00 | 0.00 | 0.00 | 86 | 1014.4 |
| 20260906072245 | 77 | 192 | 2.0 | 2.0 | 0.00 | 0.00 | 0.00 | 86 | 1014.2 |
| 20260906071741 | 77 | 192 | 1.0 | 1.0 | 0.00 | 0.00 | 0.00 | 86 | 1014.3 |
| 20260906071241 | 77 | 192 | 1.0 | 1.0 | 0.00 | 0.00 | 0.00 | 85 | 1014.4 |
| 20260906070738 | 77 | 192 | 1.0 | 1.0 | 0.00 | 0.00 | 0.00 | 85 | 1014.4 |
| 20260906070233 | 78 | 192 | 1.0 | 1.0 | 0.00 | 0.00 | 0.00 | 84 | 1014.2 |
| 20260906065732 | 78 | 192 | 1.0 | 1.0 | 0.00 | 0.00 | 0.00 | 84 | 1014.3 |
| 20260906065228 | 78 | 192 | 0.0 | 1.0 | 0.00 | 0.00 | 0.00 | 83 | 1014.5 |
| 20260906064723 | 78 | 192 | 1.0 | 1.0 | 0.00 | 0.00 | 0.00 | 83 | 1014.4 |
| 20260906064219 | 78 | 193 | 1.0 | 1.0 | 0.00 | 0.00 | 0.00 | 84 | 1014.4 |
| 20260906063714 | 78 | 192 | 1.0 | 1.0 | 0.00 | 0.00 | 0.00 | 84 | 1014.4 |
| 20260906063209 | 78 | 192 | 2.0 | 2.0 | 0.00 | 0.00 | 0.00 | 84 | 1014.1 |
| 20260906062705 | 78 | 193 | 3.0 | 3.0 | 0.00 | 0.00 | 0.00 | 84 | 1014.4 |
| 20260906062204 | 78 | 189 | 2.0 | 2.0 | 0.00 | 0.00 | 0.00 | 84 | 1014.3 |
| 20260906061700 | 78 | 164 | 2.0 | 2.0 | 0.00 | 0.00 | 0.00 | 83 | 1014.2 |
| 20260906061155 | 78 | 162 | 1.0 | 1.0 | 0.00 | 0.00 | 0.00 | 83 | 1014.5 |
| 20260906060651 | 78 | 162 | 1.0 | 1.0 | 0.00 | 0.00 | 0.00 | 83 | 1014.6 |
| 20260906060148 | 78 | 162 | 1.0 | 1.0 | 0.00 | 0.00 | 0.00 | 83 | 1014.5 |
| 20260906055644 | 78 | 157 | 2.0 | 2.0 | 0.00 | 0.00 | 0.00 | 83 | 1014.6 |
| 20260906055139 | 78 | 190 | 2.0 | 2.0 | 0.00 | 0.00 | 0.00 | 83 | 1014.5 |
| 20260906054634 | 78 | 154 | 1.0 | 2.0 | 0.00 | 0.00 | 0.00 | 82 | 1014.6 |
| 20260906054129 | 78 | 146 | 2.0 | 3.0 | 0.00 | 0.00 | 0.00 | 82 | 1014.7 |
| 20260906053625 | 79 | 180 | 3.0 | 3.0 | 0.00 | 0.00 | 0.00 | 81 | 1014.5 |
| 20260906053120 | 79 | 179 | 3.0 | 3.0 | 0.00 | 0.00 | 0.00 | 81 | 1014.6 |
| 20260906052616 | 79 | 199 | 4.0 | 5.0 | 0.00 | 0.00 | 0.00 | 82 | 1014.6 |
| 20260906052112 | 79 | 180 | 3.0 | 3.0 | 0.00 | 0.00 | 0.00 | 81 | 1014.8 |
| 20260906051608 | 79 | 191 | 3.0 | 3.0 | 0.00 | 0.00 | 0.00 | 81 | 1014.6 |
| 20260906051103 | 79 | 128 | 1.0 | 1.0 | 0.00 | 0.00 | 0.00 | 80 | 1014.4 |
| 20260906050558 | 79 | 128 | 1.0 | 1.0 | 0.00 | 0.00 | 0.00 | 80 | 1014.3 |
| 20260906050054 | 79 | 128 | 0.0 | 0.0 | 0.00 | 0.00 | 0.00 | 79 | 1014.3 |
| 20260906045551 | 79 | 128 | 0.0 | 0.0 | 0.00 | 0.00 | 0.00 | 79 | 1014.4 |
| 20260906045048 | 79 | 128 | 1.0 | 1.0 | 0.00 | 0.00 | 0.00 | 80 | 1014.5 |
| 20260906044542 | 80 | 128 | 0.0 | 0.0 | 0.00 | 0.00 | 0.00 | 80 | 1014.5 |
| 20260906044038 | 80 | 128 | 0.0 | 1.0 | 0.00 | 0.00 | 0.00 | 79 | 1014.5 |
| 20260906043533 | 80 | 125 | 1.0 | 1.0 | 0.00 | 0.00 | 0.00 | 78 | 1014.6 |
| 20260906043030 | 81 | 186 | 1.0 | 1.0 | 0.00 | 0.00 | 0.00 | 77 | 1014.2 |
| 20260906042528 | 81 | 187 | 1.0 | 1.0 | 0.00 | 0.00 | 0.00 | 77 | 1014.1 |
| 20260906042023 | 81 | 190 | 3.0 | 3.0 | 0.00 | 0.00 | 0.00 | 77 | 1014.0 |
| 20260906041520 | 81 | 227 | 4.0 | 6.0 | 0.00 | 0.00 | 0.00 | 76 | 1014.0 |
| 20260906041019 | 81 | 218 | 3.0 | 3.0 | 0.00 | 0.00 | 0.00 | 76 | 1014.2 |
| 20260906040514 | 81 | 192 | 4.0 | 5.0 | 0.00 | 0.00 | 0.00 | 77 | 1014.3 |
| 20260906040010 | 81 | 181 | 3.0 | 3.0 | 0.00 | 0.00 | 0.00 | 76 | 1014.5 |
| 20260906035505 | 81 | 178 | 3.0 | 3.0 | 0.00 | 0.00 | 0.00 | 76 | 1014.6 |
| 20260906035001 | 81 | 181 | 3.0 | 3.0 | 0.00 | 0.00 | 0.00 | 77 | 1014.8 |
| 20260906034500 | 81 | 167 | 3.0 | 5.0 | 0.00 | 0.00 | 0.00 | 76 | 1014.7 |
| 20260906033955 | 81 | 151 | 4.0 | 5.0 | 0.00 | 0.00 | 0.00 | 76 | 1014.8 |
| 20260906033450 | 81 | 164 | 2.0 | 2.0 | 0.00 | 0.00 | 0.00 | 75 | 1014.7 |
| 20260906032945 | 82 | 156 | 3.0 | 5.0 | 0.00 | 0.00 | 0.00 | 75 | 1014.7 |
| 20260906032437 | 82 | 147 | 1.0 | 2.0 | 0.00 | 0.00 | 0.00 | 74 | 1014.5 |
| 20260906031937 | 82 | 159 | 2.0 | 2.0 | 0.00 | 0.00 | 0.00 | 73 | 1014.5 |
| 20260906031432 | 82 | 155 | 2.0 | 2.0 | 0.00 | 0.00 | 0.00 | 72 | 1014.5 |
| 20260906030927 | 82 | 154 | 3.0 | 3.0 | 0.00 | 0.00 | 0.00 | 72 | 1014.4 |
| 20260906030421 | 83 | 144 | 2.0 | 2.0 | 0.00 | 0.00 | 0.00 | 71 | 1014.1 |
| 20260906025916 | 83 | 175 | 3.0 | 3.0 | 0.00 | 0.00 | 0.00 | 71 | 1014.2 |
| 20260906025411 | 83 | 174 | 4.0 | 5.0 | 0.00 | 0.00 | 0.00 | 70 | 1014.3 |
| 20260906024909 | 83 | 174 | 3.0 | 3.0 | 0.00 | 0.00 | 0.00 | 70 | 1014.0 |
| 20260906024409 | 84 | 177 | 2.0 | 2.0 | 0.00 | 0.00 | 0.00 | 70 | 1014.0 |
| 20260906023904 | 84 | 180 | 3.0 | 3.0 | 0.00 | 0.00 | 0.00 | 70 | 1014.0 |
| 20260906023400 | 84 | 177 | 5.0 | 6.0 | 0.00 | 0.00 | 0.00 | 69 | 1014.0 |
| 20260906022855 | 84 | 190 | 4.0 | 5.0 | 0.00 | 0.00 | 0.00 | 69 | 1014.1 |
| 20260906022349 | 84 | 179 | 4.0 | 5.0 | 0.00 | 0.00 | 0.00 | 69 | 1014.0 |
| 20260906021846 | 84 | 165 | 3.0 | 5.0 | 0.00 | 0.00 | 0.00 | 69 | 1014.1 |
| 20260906021344 | 84 | 159 | 3.0 | 3.0 | 0.00 | 0.00 | 0.00 | 69 | 1014.0 |
| 20260906020839 | 85 | 156 | 4.0 | 6.0 | 0.00 | 0.00 | 0.00 | 69 | 1013.8 |
| 20260906020339 | 85 | 151 | 5.0 | 6.0 | 0.00 | 0.00 | 0.00 | 69 | 1013.7 |
| 20260906015834 | 85 | 156 | 4.0 | 6.0 | 0.00 | 0.00 | 0.00 | 70 | 1013.7 |
| 20260906015333 | 85 | 157 | 6.0 | 7.0 | 0.00 | 0.00 | 0.00 | 70 | 1013.9 |
| 20260906014833 | 85 | 154 | 3.0 | 3.0 | 0.00 | 0.00 | 0.00 | 71 | 1013.8 |
| 20260906014327 | 85 | 147 | 4.0 | 6.0 | 0.00 | 0.00 | 0.00 | 70 | 1013.7 |
| 20260906013824 | 86 | 138 | 3.0 | 3.0 | 0.00 | 0.00 | 0.00 | 69 | 1014.0 |
| 20260906013319 | 86 | 149 | 5.0 | 5.0 | 0.00 | 0.00 | 0.00 | 69 | 1013.4 |
| 20260906012814 | 86 | 153 | 4.0 | 5.0 | 0.00 | 0.00 | 0.00 | 67 | 1013.5 |
| 20260906012309 | 86 | 151 | 3.0 | 3.0 | 0.00 | 0.00 | 0.00 | 66 | 1013.3 |
| 20260906011803 | 86 | 126 | 5.0 | 6.0 | 0.00 | 0.00 | 0.00 | 65 | 1013.3 |
| 20260906011258 | 86 | 123 | 4.0 | 6.0 | 0.00 | 0.00 | 0.00 | 64 | 1013.0 |
| 20260906010754 | 87 | 145 | 4.0 | 6.0 | 0.00 | 0.00 | 0.00 | 64 | 1013.0 |
| 20260906010250 | 87 | 153 | 7.0 | 8.0 | 0.00 | 0.00 | 0.00 | 63 | 1012.8 |
| 20260906005745 | 87 | 153 | 7.0 | 7.0 | 0.00 | 0.00 | 0.00 | 62 | 1013.1 |
| 20260906005244 | 87 | 123 | 6.0 | 8.0 | 0.00 | 0.00 | 0.00 | 61 | 1013.0 |
| 20260906004743 | 87 | 128 | 6.0 | 8.0 | 0.00 | 0.00 | 0.00 | 61 | 1013.1 |
| 20260906004238 | 88 | 148 | 9.0 | 10.0 | 0.00 | 0.00 | 0.00 | 60 | 1013.0 |
| 20260906003733 | 88 | 175 | 12.0 | 14.0 | 0.00 | 0.00 | 0.00 | 60 | 1013.0 |
| 20260906003228 | 88 | 166 | 11.0 | 15.0 | 0.00 | 0.00 | 0.00 | 59 | 1013.0 |
| 20260906002723 | 89 | 128 | 5.0 | 7.0 | 0.00 | 0.00 | 0.00 | 60 | 1012.9 |
| 20260906002218 | 89 | 176 | 7.0 | 8.0 | 0.00 | 0.00 | 0.00 | 60 | 1013.0 |
| 20260906001714 | 89 | 151 | 6.0 | 9.0 | 0.00 | 0.00 | 0.00 | 59 | 1013.0 |
| 20260906001214 | 89 | 161 | 11.0 | 14.0 | 0.00 | 0.00 | 0.00 | 58 | 1012.8 |
| 20260906000709 | 89 | 187 | 8.0 | 9.0 | 0.00 | 0.00 | 0.00 | 58 | 1012.9 |
| 20260906000204 | 89 | 144 | 9.0 | 11.0 | 0.00 | 0.00 | 0.00 | 58 | 1012.7 |
| 20260905235703 | 89 | 147 | 10.0 | 11.0 | 0.00 | 0.00 | 0.00 | 58 | 1012.8 |
| 20260905235158 | 89 | 169 | 10.0 | 11.0 | 0.00 | 0.00 | 0.00 | 58 | 1012.7 |
| 20260905234654 | 90 | 157 | 9.0 | 13.0 | 0.00 | 0.00 | 0.00 | 56 | 1012.7 |
| 20260905234149 | 91 | 160 | 13.0 | 15.0 | 0.00 | 0.00 | 0.00 | 53 | 1012.5 |
| 20260905233644 | 94 | 155 | 12.0 | 14.0 | 0.00 | 0.00 | 0.00 | 49 | 1012.6 |
| 20260905233143 | 95 | 152 | 11.0 | 13.0 | 0.00 | 0.00 | 0.00 | 47 | 1012.3 |
| 20260905232638 | 97 | 114 | 13.0 | 16.0 | 0.00 | 0.00 | 0.00 | 45 | 1012.3 |
| 20260905232134 | 97 | 145 | 4.0 | 6.0 | 0.00 | 0.00 | 0.00 | 42 | 1012.4 |
| 20260905231629 | 96 | 115 | 3.0 | 5.0 | 0.00 | 0.00 | 0.00 | 42 | 1012.3 |
| 20260905231126 | 96 | 144 | 2.0 | 2.0 | 0.00 | 0.00 | 0.00 | 42 | 1012.1 |
| 20260905230621 | 97 | 185 | 5.0 | 7.0 | 0.00 | 0.00 | 0.00 | 41 | 1012.2 |
| 20260905230118 | 99 | 127 | 6.0 | 8.0 | 0.00 | 0.00 | 0.00 | 40 | 1012.2 |
| 20260905225613 | 98 | 119 | 6.0 | 8.0 | 0.00 | 0.00 | 0.00 | 40 | 1012.2 |
| 20260905225108 | 99 | 115 | 5.0 | 7.0 | 0.00 | 0.00 | 0.00 | 40 | 1012.1 |
| 20260905224608 | 99 | 125 | 1.0 | 2.0 | 0.00 | 0.00 | 0.00 | 39 | 1012.3 |
| 20260905224107 | 100 | 188 | 3.0 | 3.0 | 0.00 | 0.00 | 0.00 | 38 | 1012.2 |
| 20260905223604 | 101 | 232 | 3.0 | 3.0 | 0.00 | 0.00 | 0.00 | 37 | 1012.2 |
| 20260905223101 | 101 | 163 | 1.0 | 1.0 | 0.00 | 0.00 | 0.00 | 37 | 1012.1 |
| 20260905222600 | 101 | 171 | 1.0 | 1.0 | 0.00 | 0.00 | 0.00 | 38 | 1012.0 |
| 20260905222056 | 99 | 163 | 1.0 | 1.0 | 0.00 | 0.00 | 0.00 | 38 | 1012.1 |
| 20260905221552 | 99 | 153 | 3.0 | 3.0 | 0.00 | 0.00 | 0.00 | 38 | 1012.0 |
| 20260905221048 | 100 | 121 | 4.0 | 6.0 | 0.00 | 0.00 | 0.00 | 39 | 1012.0 |
| 20260905220543 | 101 | 143 | 2.0 | 2.0 | 0.00 | 0.00 | 0.00 | 38 | 1012.2 |
| 20260905220039 | 101 | 161 | 2.0 | 2.0 | 0.00 | 0.00 | 0.00 | 36 | 1012.1 |
| 20260905215538 | 100 | 167 | 0.0 | 0.0 | 0.00 | 0.00 | 0.00 | 38 | 1012.4 |
| 20260905215035 | 100 | 65 | 3.0 | 3.0 | 0.00 | 0.00 | 0.00 | 37 | 1012.7 |
| 20260905214531 | 99 | 91 | 1.0 | 1.0 | 0.00 | 0.00 | 0.00 | 39 | 1012.4 |
| 20260905214025 | 99 | 223 | 3.0 | 3.0 | 0.00 | 0.00 | 0.00 | 39 | 1012.5 |
| 20260905213521 | 99 | 234 | 5.0 | 6.0 | 0.00 | 0.00 | 0.00 | 40 | 1012.5 |
| 20260905213016 | 99 | 194 | 3.0 | 3.0 | 0.00 | 0.00 | 0.00 | 40 | 1012.5 |
| 20260905212511 | 99 | 120 | 0.0 | 1.0 | 0.00 | 0.00 | 0.00 | 40 | 1012.6 |
| 20260905212010 | 98 | 109 | 3.0 | 3.0 | 0.00 | 0.00 | 0.00 | 41 | 1012.8 |
| 20260905211506 | 97 | 105 | 4.0 | 5.0 | 0.00 | 0.00 | 0.00 | 43 | 1012.7 |
| 20260905211002 | 97 | 90 | 7.0 | 9.0 | 0.00 | 0.00 | 0.00 | 42 | 1012.8 |
| 20260905210457 | 96 | 95 | 1.0 | 1.0 | 0.00 | 0.00 | 0.00 | 44 | 1012.8 |
| 20260905205956 | 96 | 85 | 1.0 | 1.0 | 0.00 | 0.00 | 0.00 | 43 | 1013.0 |
| 20260905205451 | 96 | 74 | 2.0 | 3.0 | 0.00 | 0.00 | 0.00 | 44 | 1012.9 |
| 20260905204949 | 96 | 78 | 3.0 | 3.0 | 0.00 | 0.00 | 0.00 | 44 | 1013.0 |
| 20260905204446 | 96 | 56 | 3.0 | 5.0 | 0.00 | 0.00 | 0.00 | 43 | 1013.2 |
| 20260905203945 | 97 | 87 | 6.0 | 7.0 | 0.00 | 0.00 | 0.00 | 42 | 1013.0 |
| 20260905203440 | 98 | 58 | 6.0 | 7.0 | 0.00 | 0.00 | 0.00 | 41 | 1013.1 |
| 20260905202936 | 99 | 64 | 3.0 | 3.0 | 0.00 | 0.00 | 0.00 | 39 | 1013.1 |
| 20260905202431 | 100 | 40 | 2.0 | 2.0 | 0.00 | 0.00 | 0.00 | 38 | 1013.2 |
| 20260905201927 | 99 | 38 | 3.0 | 3.0 | 0.00 | 0.00 | 0.00 | 38 | 1013.3 |
| 20260905201422 | 98 | 122 | 1.0 | 2.0 | 0.00 | 0.00 | 0.00 | 39 | 1013.4 |
| 20260905200921 | 98 | 198 | 4.0 | 5.0 | 0.00 | 0.00 | 0.00 | 39 | 1013.3 |
| 20260905200417 | 97 | 218 | 3.0 | 5.0 | 0.00 | 0.00 | 0.00 | 40 | 1013.3 |
| 20260905195915 | 96 | 147 | 3.0 | 3.0 | 0.00 | 0.00 | 0.00 | 42 | 1013.9 |
| 20260905195411 | 97 | 115 | 4.0 | 5.0 | 0.00 | 0.00 | 0.00 | 41 | 1013.6 |
| 20260905194906 | 98 | 118 | 1.0 | 2.0 | 0.00 | 0.00 | 0.00 | 41 | 1013.7 |
| 20260905194405 | 99 | 215 | 3.0 | 3.0 | 0.00 | 0.00 | 0.00 | 38 | 1013.9 |
| 20260905193900 | 100 | 121 | 0.0 | 0.0 | 0.00 | 0.00 | 0.00 | 38 | 1013.8 |
| 20260905193355 | 99 | 330 | 1.0 | 2.0 | 0.00 | 0.00 | 0.00 | 39 | 1014.0 |
| 20260905192850 | 98 | 118 | 4.0 | 5.0 | 0.00 | 0.00 | 0.00 | 40 | 1014.0 |
| 20260905192345 | 98 | 92 | 5.0 | 6.0 | 0.00 | 0.00 | 0.00 | 41 | 1014.2 |
| 20260905191844 | 99 | 199 | 5.0 | 7.0 | 0.00 | 0.00 | 0.00 | 40 | 1014.2 |
| 20260905191344 | 99 | 160 | 5.0 | 7.0 | 0.00 | 0.00 | 0.00 | 40 | 1014.2 |
| 20260905190843 | 98 | 96 | 3.0 | 5.0 | 0.00 | 0.00 | 0.00 | 40 | 1014.2 |
| 20260905190337 | 97 | 164 | 6.0 | 8.0 | 0.00 | 0.00 | 0.00 | 43 | 1014.5 |
| 20260905185836 | 97 | 285 | 4.0 | 5.0 | 0.00 | 0.00 | 0.00 | 41 | 1014.4 |
| 20260905185331 | 97 | 27 | 2.0 | 3.0 | 0.00 | 0.00 | 0.00 | 41 | 1014.9 |
| 20260905184830 | 98 | 76 | 1.0 | 1.0 | 0.00 | 0.00 | 0.00 | 40 | 1014.6 |
| 20260905184330 | 98 | 158 | 5.0 | 6.0 | 0.00 | 0.00 | 0.00 | 39 | 1014.9 |
| 20260905183828 | 97 | 195 | 3.0 | 5.0 | 0.00 | 0.00 | 0.00 | 41 | 1014.8 |
| 20260905183324 | 96 | 97 | 7.0 | 8.0 | 0.00 | 0.00 | 0.00 | 43 | 1014.9 |
| 20260905182823 | 95 | 209 | 2.0 | 2.0 | 0.00 | 0.00 | 0.00 | 45 | 1015.1 |
| 20260905182317 | 95 | 96 | 5.0 | 6.0 | 0.00 | 0.00 | 0.00 | 44 | 1015.4 |
| 20260905181813 | 95 | 129 | 1.0 | 1.0 | 0.00 | 0.00 | 0.00 | 45 | 1015.1 |
| 20260905181307 | 96 | 117 | 3.0 | 3.0 | 0.00 | 0.00 | 0.00 | 44 | 1015.4 |
| 20260905180806 | 96 | 108 | 5.0 | 7.0 | 0.00 | 0.00 | 0.00 | 43 | 1015.3 |
| 20260905180301 | 94 | 218 | 5.0 | 6.0 | 0.00 | 0.00 | 0.00 | 46 | 1015.5 |
| 20260905175756 | 95 | 63 | 2.0 | 2.0 | 0.00 | 0.00 | 0.00 | 45 | 1015.5 |
| 20260905175251 | 96 | 181 | 1.0 | 2.0 | 0.00 | 0.00 | 0.00 | 45 | 1015.6 |
| 20260905174746 | 96 | 173 | 3.0 | 5.0 | 0.00 | 0.00 | 0.00 | 45 | 1015.8 |
| 20260905174242 | 95 | 182 | 3.0 | 3.0 | 0.00 | 0.00 | 0.00 | 46 | 1015.8 |
| 20260905173737 | 94 | 68 | 5.0 | 6.0 | 0.00 | 0.00 | 0.00 | 48 | 1016.1 |
| 20260905173233 | 95 | 114 | 5.0 | 6.0 | 0.00 | 0.00 | 0.00 | 47 | 1015.8 |
| 20260905172727 | 96 | 86 | 2.0 | 6.0 | 0.00 | 0.00 | 0.00 | 46 | 1016.1 |
| 20260905172227 | 96 | 123 | 5.0 | 6.0 | 0.00 | 0.00 | 0.00 | 44 | 1015.9 |
| 20260905171723 | 96 | 96 | 8.0 | 9.0 | 0.00 | 0.00 | 0.00 | 45 | 1016.2 |
| 20260905171219 | 96 | 182 | 2.0 | 2.0 | 0.00 | 0.00 | 0.00 | 46 | 1015.9 |
| 20260905170715 | 95 | 82 | 0.0 | 1.0 | 0.00 | 0.00 | 0.00 | 47 | 1016.0 |
| 20260905170210 | 95 | 97 | 5.0 | 6.0 | 0.00 | 0.00 | 0.00 | 47 | 1016.0 |
| 20260905165709 | 94 | 105 | 1.0 | 1.0 | 0.00 | 0.00 | 0.00 | 50 | 1016.3 |
| 20260905165205 | 94 | 120 | 3.0 | 5.0 | 0.00 | 0.00 | 0.00 | 50 | 1016.2 |
| 20260905164700 | 94 | 336 | 2.0 | 2.0 | 0.00 | 0.00 | 0.00 | 50 | 1016.2 |
| 20260905164159 | 94 | 245 | 6.0 | 7.0 | 0.00 | 0.00 | 0.00 | 50 | 1016.2 |
| 20260905163655 | 94 | 178 | 6.0 | 8.0 | 0.00 | 0.00 | 0.00 | 52 | 1016.5 |
| 20260905163152 | 94 | 162 | 4.0 | 5.0 | 0.00 | 0.00 | 0.00 | 50 | 1016.3 |
| 20260905162648 | 92 | 142 | 2.0 | 2.0 | 0.00 | 0.00 | 0.00 | 51 | 1016.3 |
| 20260905162146 | 93 | 190 | 4.0 | 5.0 | 0.00 | 0.00 | 0.00 | 52 | 1016.3 |
| 20260905161641 | 94 | 199 | 5.0 | 6.0 | 0.00 | 0.00 | 0.00 | 51 | 1016.6 |
| 20260905161139 | 93 | 137 | 3.0 | 3.0 | 0.00 | 0.00 | 0.00 | 52 | 1016.5 |
| 20260905160638 | 93 | 102 | 2.0 | 2.0 | 0.00 | 0.00 | 0.00 | 51 | 1016.3 |
| 20260905160133 | 92 | 102 | 0.0 | 0.0 | 0.00 | 0.00 | 0.00 | 53 | 1016.6 |
| 20260905155633 | 92 | 169 | 3.0 | 3.0 | 0.00 | 0.00 | 0.00 | 53 | 1016.8 |
| 20260905155131 | 92 | 12 | 2.0 | 3.0 | 0.00 | 0.00 | 0.00 | 54 | 1016.8 |
| 20260905154626 | 91 | 166 | 1.0 | 1.0 | 0.00 | 0.00 | 0.00 | 52 | 1016.6 |
| 20260905154122 | 91 | 76 | 1.0 | 2.0 | 0.00 | 0.00 | 0.00 | 55 | 1016.7 |
| 20260905153617 | 90 | 47 | 3.0 | 3.0 | 0.00 | 0.00 | 0.00 | 55 | 1016.7 |
| 20260905153113 | 90 | 345 | 1.0 | 2.0 | 0.00 | 0.00 | 0.00 | 55 | 1016.6 |
| 20260905152608 | 90 | 301 | 5.0 | 7.0 | 0.00 | 0.00 | 0.00 | 58 | 1016.6 |
| 20260905152102 | 90 | 96 | 1.0 | 1.0 | 0.00 | 0.00 | 0.00 | 60 | 1016.5 |
| 20260905151557 | 89 | 287 | 3.0 | 3.0 | 0.00 | 0.00 | 0.00 | 60 | 1016.7 |
| 20260905151052 | 89 | 211 | 4.0 | 5.0 | 0.00 | 0.00 | 0.00 | 61 | 1016.3 |
| 20260905150548 | 89 | 233 | 3.0 | 3.0 | 0.00 | 0.00 | 0.00 | 61 | 1016.5 |
| 20260905150045 | 88 | 219 | 2.0 | 2.0 | 0.00 | 0.00 | 0.00 | 63 | 1016.5 |
| 20260905145539 | 88 | 163 | 1.0 | 2.0 | 0.00 | 0.00 | 0.00 | 63 | 1016.2 |
| 20260905145038 | 88 | 205 | 3.0 | 3.0 | 0.00 | 0.00 | 0.00 | 63 | 1016.5 |
| 20260905144533 | 88 | 217 | 5.0 | 6.0 | 0.00 | 0.00 | 0.00 | 64 | 1016.6 |
| 20260905144032 | 88 | 212 | 3.0 | 5.0 | 0.00 | 0.00 | 0.00 | 63 | 1016.3 |
| 20260905143532 | 88 | 120 | 1.0 | 1.0 | 0.00 | 0.00 | 0.00 | 63 | 1016.6 |
| 20260905143027 | 87 | 209 | 2.0 | 3.0 | 0.00 | 0.00 | 0.00 | 64 | 1016.2 |
| 20260905142525 | 87 | 218 | 3.0 | 3.0 | 0.00 | 0.00 | 0.00 | 63 | 1016.2 |
| 20260905142021 | 86 | 170 | 2.0 | 2.0 | 0.00 | 0.00 | 0.00 | 64 | 1016.0 |
| 20260905141515 | 86 | 202 | 3.0 | 3.0 | 0.00 | 0.00 | 0.00 | 65 | 1016.0 |
| 20260905141012 | 86 | 203 | 3.0 | 3.0 | 0.00 | 0.00 | 0.00 | 66 | 1016.0 |
| 20260905140507 | 85 | 169 | 3.0 | 3.0 | 0.00 | 0.00 | 0.00 | 65 | 1016.2 |
| 20260905140006 | 84 | 140 | 2.0 | 3.0 | 0.00 | 0.00 | 0.00 | 67 | 1016.2 |
| 20260905135501 | 84 | 133 | 1.0 | 1.0 | 0.00 | 0.00 | 0.00 | 68 | 1016.5 |
| 20260905134956 | 83 | 137 | 1.0 | 1.0 | 0.00 | 0.00 | 0.00 | 69 | 1016.3 |
| 20260905134455 | 83 | 182 | 3.0 | 3.0 | 0.00 | 0.00 | 0.00 | 69 | 1016.5 |
| 20260905133954 | 83 | 125 | 1.0 | 1.0 | 0.00 | 0.00 | 0.00 | 70 | 1016.2 |
| 20260905133449 | 82 | 144 | 1.0 | 1.0 | 0.00 | 0.00 | 0.00 | 70 | 1016.1 |
| 20260905132944 | 82 | 216 | 2.0 | 2.0 | 0.00 | 0.00 | 0.00 | 71 | 1016.0 |
| 20260905132439 | 82 | 216 | 2.0 | 2.0 | 0.00 | 0.00 | 0.00 | 71 | 1015.8 |
| 20260905131934 | 82 | 216 | 1.0 | 1.0 | 0.00 | 0.00 | 0.00 | 71 | 1016.0 |
| 20260905131430 | 82 | 216 | 2.0 | 2.0 | 0.00 | 0.00 | 0.00 | 72 | 1015.9 |
| 20260905130930 | 82 | 216 | 0.0 | 0.0 | 0.00 | 0.00 | 0.00 | 72 | 1015.8 |
| 20260905130424 | 81 | 216 | 0.0 | 1.0 | 0.00 | 0.00 | 0.00 | 74 | 1015.9 |
| 20260905125924 | 80 | 216 | 1.0 | 1.0 | 0.00 | 0.00 | 0.00 | 75 | 1015.7 |
| 20260905125419 | 79 | 216 | 0.0 | 0.0 | 0.00 | 0.00 | 0.00 | 77 | 1015.6 |
| 20260905124914 | 78 | 216 | 0.0 | 0.0 | 0.00 | 0.00 | 0.00 | 79 | 1015.7 |
| 20260905124411 | 77 | 216 | 0.0 | 0.0 | 0.00 | 0.00 | 0.00 | 81 | 1015.6 |
| 20260905123910 | 77 | 216 | 0.0 | 1.0 | 0.00 | 0.00 | 0.00 | 82 | 1015.6 |
| 20260905123407 | 76 | 216 | 1.0 | 1.0 | 0.00 | 0.00 | 0.00 | 83 | 1015.4 |
| 20260905122902 | 76 | 216 | 2.0 | 2.0 | 0.00 | 0.00 | 0.00 | 84 | 1015.5 |
| 20260905122401 | 75 | 216 | 1.0 | 1.0 | 0.00 | 0.00 | 0.00 | 85 | 1015.3 |
| 20260905121857 | 75 | 216 | 0.0 | 0.0 | 0.00 | 0.00 | 0.00 | 85 | 1015.3 |
| 20260905121353 | 75 | 216 | 1.0 | 1.0 | 0.00 | 0.00 | 0.00 | 85 | 1015.4 |
| 20260905120852 | 75 | 216 | 1.0 | 1.0 | 0.00 | 0.00 | 0.00 | 85 | 1015.5 |
| 20260905120346 | 75 | 216 | 1.0 | 1.0 | 0.00 | 0.00 | 0.00 | 85 | 1015.4 |
| 20260905115842 | 75 | 216 | 0.0 | 0.0 | 0.00 | 0.00 | 0.00 | 85 | 1015.3 |
| 20260905115340 | 75 | 216 | 2.0 | 2.0 | 0.00 | 0.00 | 0.00 | 84 | 1015.2 |
| 20260905114835 | 75 | 217 | 1.0 | 2.0 | 0.00 | 0.00 | 0.00 | 84 | 1015.3 |
| 20260905114334 | 75 | 217 | 0.0 | 0.0 | 0.00 | 0.00 | 0.00 | 84 | 1015.2 |
| 20260905113833 | 75 | 217 | 0.0 | 0.0 | 0.00 | 0.00 | 0.00 | 82 | 1015.4 |
| 20260905113324 | 75 | 217 | 0.0 | 0.0 | 0.00 | 0.00 | 0.00 | 81 | 1015.3 |
| 20260905112819 | 75 | 217 | 0.0 | 0.0 | 0.00 | 0.00 | 0.00 | 82 | 1015.5 |
| 20260905112313 | 75 | 217 | 0.0 | 0.0 | 0.00 | 0.00 | 0.00 | 81 | 1015.1 |
| 20260905111808 | 76 | 217 | 0.0 | 0.0 | 0.00 | 0.00 | 0.00 | 82 | 1015.3 |
| 20260905111303 | 76 | 217 | 0.0 | 0.0 | 0.00 | 0.00 | 0.00 | 82 | 1015.4 |
| 20260905110802 | 76 | 217 | 0.0 | 0.0 | 0.00 | 0.00 | 0.00 | 81 | 1015.2 |
| 20260905110256 | 76 | 217 | 0.0 | 0.0 | 0.00 | 0.00 | 0.00 | 81 | 1015.3 |
| 20260905105752 | 77 | 217 | 0.0 | 0.0 | 0.00 | 0.00 | 0.00 | 80 | 1015.2 |
| 20260905105251 | 77 | 217 | 0.0 | 1.0 | 0.00 | 0.00 | 0.00 | 80 | 1015.2 |
| 20260905104745 | 77 | 217 | 0.0 | 0.0 | 0.00 | 0.00 | 0.00 | 79 | 1015.0 |
| 20260905104241 | 77 | 217 | 1.0 | 1.0 | 0.00 | 0.00 | 0.00 | 79 | 1015.4 |
| 20260905103736 | 77 | 217 | 1.0 | 1.0 | 0.00 | 0.00 | 0.00 | 78 | 1015.3 |
| 20260905103232 | 77 | 217 | 1.0 | 1.0 | 0.00 | 0.00 | 0.00 | 78 | 1015.4 |
| 20260905102727 | 77 | 217 | 2.0 | 2.0 | 0.00 | 0.00 | 0.00 | 79 | 1015.4 |
| 20260905102224 | 77 | 211 | 2.0 | 2.0 | 0.00 | 0.00 | 0.00 | 78 | 1015.3 |
| 20260905101723 | 77 | 232 | 2.0 | 2.0 | 0.00 | 0.00 | 0.00 | 78 | 1015.2 |
| 20260905101221 | 77 | 232 | 3.0 | 3.0 | 0.00 | 0.00 | 0.00 | 79 | 1015.1 |